Weather History for Kalaeloa, HI

Change the Weather History Date:

Thursday, December 6, 2012

  Actual Average (PHNL) Record (PHNL)
Temperature  
Mean Temperature 72 °F 76 °F  
Max Temperature 82 °F 82 °F 88 °F (1983)
Min Temperature 61 °F 69 °F 59 °F (1986)
Degree Days  
Heating Degree Days 0 0  
Month to date heating degree days 0  
Since 1 July heating degree days 0  
Cooling Degree Days 6 11  
Month to date cooling degree days 66  
Year to date cooling degree days 4392  
Growing Degree Days 22 (Base 50)    
Moisture  
Dew Point 67 °F    
Average Humidity 81    
Maximum Humidity 100    
Minimum Humidity 62    
Precipitation  
Precipitation 0.00 in 0.09 in 4.11 in (1988)
Month to date precipitation 0.49  
Year to date precipitation 14.35  
Snow  
Snow 0.00 in - - ()
Month to date snowfall  
Since 1 July snowfall  
Snow Depth -    
Sea Level Pressure  
Sea Level Pressure 30.00 in    
Wind  
Wind Speed 3 mph (ESE)    
Max Wind Speed 9 mph    
Max Gust Speed -    
Visibility 10 miles    
Events      
T = Trace of Precipitation, MM = Missing Value Source: NWS Daily Summary

Daily Weather History Graph

Daily Weather History Graph

Search for Another Location

Airport:

Trip Planner

Search our weather history database for the weather conditions in past years. The results will help you decide how hot, cold, wet, or windy it might be!

Date:

Astronomy

Dec. 06, 2012 Rise Set
Actual Time 6:57 AM HST 5:50 PM HST
Civil Twilight 6:32 AM HST 6:14 PM HST
Nautical Twilight 6:05 AM HST 6:41 PM HST
Astronomical Twilight 5:38 AM HST 7:09 PM HST
Moon 12:12 AM HST (12/6) 12:38 PM HST (12/6)
Length of Visible Light 11h 41m
Length of Day
10h 53m
Waning Gibbous, 47% of the Moon is Illuminated
Dec 6
Waning Gibbous
Dec 12
New
Dec 19
First Quarter
Dec 28
Full
Jan 4
Last Quarter

Hourly Weather History & Observations

Time (HST) Temp. Heat Index Dew Point Humidity Pressure Visibility Wind Dir Wind Speed Gust Speed Precip Events Conditions
12:53 AM 64.9 °F - 64.9 °F 100% 30.04 in 10.0 mi Calm Calm - N/A   Clear
1:53 AM 64.0 °F - 64.0 °F 100% 30.02 in 10.0 mi Calm Calm - N/A   Clear
2:53 AM 64.0 °F - 64.0 °F 100% 30.02 in 10.0 mi NNE 3.5 mph - N/A   Clear
3:53 AM 63.0 °F - 63.0 °F 100% 30.01 in 10.0 mi NNE 3.5 mph - N/A   Partly Cloudy
4:53 AM 61.0 °F - - N/A% 30.01 in 10.0 mi North 3.5 mph - N/A   Clear
5:53 AM 61.0 °F - - N/A% 30.01 in 10.0 mi North 3.5 mph - N/A   Clear
6:53 AM 61.0 °F - - N/A% 30.03 in 10.0 mi Calm Calm - N/A   Clear
7:53 AM 62.1 °F - - N/A% 30.05 in 10.0 mi Calm Calm - N/A   Clear
8:53 AM 70.0 °F - 69.1 °F 97% 30.06 in 10.0 mi Calm Calm - N/A   Clear
9:53 AM 73.9 °F - 68.0 °F 82% 30.06 in 10.0 mi East 3.5 mph - N/A   Mostly Cloudy
10:42 AM 75.2 °F - 68.0 °F 78% 30.02 in 10.0 mi SSE 4.6 mph - N/A   Overcast
10:53 AM 75.0 °F - 66.9 °F 76% 30.04 in 10.0 mi SSE 4.6 mph - N/A   Overcast
11:09 AM 75.2 °F - 66.2 °F 73% 30.01 in 10.0 mi SSE 4.6 mph - N/A   Mostly Cloudy
11:53 AM 81.0 °F 83.3 °F 66.9 °F 62% 30.01 in 10.0 mi South 8.1 mph - N/A   Clear
12:53 PM 82.0 °F 85.5 °F 69.1 °F 65% 29.98 in 10.0 mi SSE 9.2 mph - N/A   Partly Cloudy
1:53 PM 81.0 °F 84.1 °F 69.1 °F 67% 29.95 in 10.0 mi SSE 8.1 mph - N/A   Partly Cloudy
2:53 PM 81.0 °F 83.3 °F 66.9 °F 62% 29.94 in 10.0 mi SE 9.2 mph - N/A   Overcast
3:53 PM 79.0 °F - 66.9 °F 66% 29.94 in 10.0 mi SE 6.9 mph - N/A   Overcast
4:53 PM 78.1 °F - 68.0 °F 71% 29.94 in 10.0 mi Variable 3.5 mph - N/A   Partly Cloudy
5:53 PM 75.0 °F - 66.9 °F 76% 29.95 in 10.0 mi Calm Calm - N/A   Clear
6:53 PM 75.9 °F - 68.0 °F 76% 29.95 in 10.0 mi ESE 5.8 mph - N/A   Clear
7:53 PM 73.9 °F - 66.0 °F 76% 29.96 in 10.0 mi East 3.5 mph - N/A   Clear
8:53 PM 72.0 °F - 66.0 °F 81% 29.98 in 10.0 mi ENE 3.5 mph - N/A   Clear
9:53 PM 71.1 °F - 66.0 °F 84% 29.99 in 10.0 mi Calm Calm - N/A   Scattered Clouds
10:14 PM 71.6 °F - 66.2 °F 83% 29.97 in 10.0 mi Calm Calm - N/A   Mostly Cloudy
10:28 PM 69.8 °F - 66.2 °F 88% 29.97 in 10.0 mi Calm Calm - N/A   Mostly Cloudy
10:53 PM 71.1 °F - 66.0 °F 84% 29.99 in 10.0 mi Calm Calm - N/A   Mostly Cloudy
11:53 PM 70.0 °F - 66.0 °F 87% 29.98 in 10.0 mi Calm Calm - N/A   Mostly Cloudy